Date,TemperatureHighF,TemperatureAvgF,TemperatureLowF,DewpointHighF,DewpointAvgF,DewpointLowF,HumidityHigh,HumidityAvg,HumidityLow,PressureMaxIn,PressureMinIn,WindSpeedMaxMPH,WindSpeedAvgMPH,GustSpeedMaxMPH,PrecipitationSumIn
2012-1-1,63.4,46.8,30.2,51.7,33.2,10.1,96,63,21,30.20,29.93,1,1,1,0.01
2012-1-2,34.0,23.0,10.5,24.0,11.8,6.4,90,64,34,30.15,29.93,1,1,1,0.00
2012-1-3,24.0,13.5,6.3,14.6,5.7,-3.2,90,72,42,30.47,30.14,1,1,1,0.02
2012-1-4,44.3,30.1,13.4,24.6,5.3,-18.4,78,38,13,30.49,30.17,1,1,1,0.01
2012-1-5,50.9,37.6,27.0,27.3,21.8,11.4,92,58,24,30.24,30.10,1,1,1,0.00
2012-1-6,59.2,45.0,35.6,24.4,19.6,13.9,57,38,18,30.19,30.04,1,1,1,0.00
2012-1-7,55.6,46.4,37.8,49.2,43.0,24.3,99,88,58,30.14,30.01,1,1,1,0.13
2012-1-8,48.6,45.9,42.9,48.5,45.7,42.6,100,99,95,30.24,30.13,1,1,1,0.10
2012-1-9,52.8,47.7,45.6,52.8,47.6,45.6,100,100,96,30.21,30.07,1,1,1,0.43
2012-1-10,52.3,47.1,43.1,51.3,46.7,42.8,100,99,93,30.12,29.92,1,1,1,0.08
2012-1-11,47.7,43.9,38.6,47.7,43.9,38.6,100,100,100,29.92,29.46,1,1,1,1.64
2012-1-12,50.7,36.6,16.1,44.5,35.0,11.1,100,94,71,29.71,29.57,1,1,1,0.06
2012-1-13,28.2,18.8,13.1,21.4,14.9,10.6,93,85,69,30.20,29.70,1,1,1,0.00
2012-1-14,36.9,25.5,15.0,25.1,16.9,9.6,90,71,52,30.33,30.18,1,1,1,0.02
2012-1-15,40.9,31.4,22.1,25.2,18.1,8.4,89,61,30,30.57,30.19,1,1,1,0.00
2012-1-16,38.2,33.6,30.1,32.7,21.5,11.7,81,62,41,30.58,30.43,1,1,1,0.00
2012-1-17,49.7,44.2,38.0,48.5,42.5,32.7,100,94,76,30.43,29.97,1,1,1,1.01
2012-1-18,43.4,33.4,27.0,43.4,27.2,10.8,100,79,46,30.12,29.91,1,1,1,0.40
2012-1-19,42.5,31.3,23.3,25.8,21.4,14.0,88,68,35,30.22,30.10,1,1,1,0.00
2012-1-20,48.7,42.0,34.9,47.3,40.2,24.4,100,94,65,30.19,30.06,1,1,1,0.29
2012-1-21,52.2,46.9,42.6,52.0,46.8,42.6,100,100,93,30.08,29.88,1,1,1,0.58
2012-1-22,44.2,41.4,39.7,44.2,41.4,39.7,100,100,100,30.25,30.07,1,1,1,0.09
2012-1-23,48.4,41.3,36.7,48.4,41.3,36.7,100,100,98,30.19,30.04,1,1,1,0.83
2012-1-24,57.9,45.0,34.5,43.6,31.0,18.9,100,65,24,30.30,30.09,1,1,1,0.01
2012-1-25,56.2,49.3,40.3,43.5,28.8,11.5,82,47,21,30.32,30.18,1,1,1,0.00
2012-1-26,52.2,49.3,45.4,52.2,48.4,41.9,100,97,82,30.19,29.69,1,1,1,1.04
2012-1-27,51.4,41.5,31.9,51.4,38.1,13.2,100,89,37,30.06,29.64,1,1,1,0.21
2012-1-28,52.9,38.8,25.8,37.8,24.0,-0.9,81,59,16,30.24,30.06,1,1,1,0.00
2012-1-29,43.4,30.9,21.7,17.9,9.5,-1.6,73,43,19,30.43,30.22,1,1,1,0.00
2012-1-30,53.4,38.4,28.9,21.3,17.3,13.9,57,44,24,30.51,30.38,1,1,1,0.00
2012-1-31,60.7,45.5,35.5,31.9,22.4,17.1,52,41,26,30.45,30.33,1,1,1,0.00
2012-2-1,54.9,46.3,42.2,48.8,42.3,25.6,100,87,50,30.33,30.11,1,1,1,0.65
2012-2-2,56.7,46.7,37.0,47.0,36.7,21.5,100,73,31,30.31,30.06,13,2,13,0.00
2012-2-3,51.2,43.5,38.3,29.8,23.7,17.2,70,46,31,30.43,30.31,16,4,16,0.00
2012-2-4,51.9,44.7,36.6,51.8,42.2,27.2,100,92,60,30.36,30.08,14,3,15,0.60
2012-2-5,57.8,47.7,38.1,49.8,43.7,35.4,100,87,61,30.13,29.99,13,3,15,0.03
2012-2-6,47.4,38.0,31.7,41.7,35.9,30.7,100,93,72,30.22,30.11,11,3,11,0.00
2012-2-7,55.3,39.6,29.3,34.4,27.2,14.8,99,68,21,30.24,30.17,8,2,9,0.00
2012-2-8,45.9,36.3,26.5,33.9,29.2,23.9,90,76,54,30.21,30.13,11,3,18,0.00
2012-2-9,42.5,30.9,22.2,28.8,25.6,21.0,96,82,58,30.33,30.17,12,3,13,0.01
2012-2-10,47.5,35.5,29.5,29.8,26.3,20.1,83,70,36,30.26,29.92,13,1,13,0.00
2012-2-11,33.0,21.2,7.6,28.1,16.5,3.3,93,82,64,30.22,29.81,22,5,28,0.00
2012-2-12,36.1,19.2,5.9,13.0,7.5,1.8,87,63,37,30.44,30.17,22,4,22,0.01
2012-2-13,43.4,30.8,16.7,15.4,12.5,8.3,78,48,30,30.38,30.18,15,4,15,0.00
2012-2-14,37.7,31.8,27.3,37.7,30.5,14.4,100,96,46,30.19,30.07,10,2,10,0.12
2012-2-15,59.1,44.1,30.1,34.2,28.5,14.5,100,61,25,30.36,30.19,19,6,21,0.00
2012-2-16,51.9,43.8,38.6,51.9,42.0,34.0,100,93,76,30.25,30.03,17,4,17,0.16
2012-2-17,56.2,43.7,34.3,40.6,35.0,24.3,100,76,34,30.18,30.07,10,2,10,0.01
2012-2-18,54.4,44.5,39.7,43.3,40.0,35.1,100,85,51,30.13,29.93,12,3,12,0.03
2012-2-19,40.7,36.8,28.6,40.4,36.8,28.4,100,100,98,29.95,29.67,28,6,28,0.45
2012-2-20,50.2,34.0,24.8,34.9,26.4,20.4,99,76,40,30.35,29.95,16,4,17,0.00
2012-2-21,48.2,36.0,26.9,38.4,30.8,21.3,93,82,63,30.33,30.09,20,5,20,0.00
2012-2-22,61.2,47.4,38.9,45.2,37.6,26.7,98,70,47,30.10,29.63,17,2,17,0.12
2012-2-23,65.5,53.7,44.8,53.1,48.1,43.8,99,82,55,29.71,29.62,10,1,13,0.19
2012-2-24,65.0,48.3,27.2,56.1,40.5,18.6,93,75,43,29.88,29.55,30,2,30,0.00
2012-2-25,42.6,30.2,21.5,21.1,15.5,8.4,83,56,33,30.39,29.88,21,4,21,0.00
2012-2-26,45.6,33.6,24.6,22.5,15.8,7.6,63,49,33,30.52,30.38,16,5,16,0.00
2012-2-27,59.4,45.0,34.2,46.9,38.6,22.2,99,79,59,30.50,30.38,14,2,14,0.00
2012-2-28,58.9,49.3,42.7,45.3,37.9,31.7,99,66,45,30.42,30.27,15,6,16,0.00
2012-2-29,62.2,52.5,45.6,57.8,51.6,45.1,100,97,81,30.27,29.90,16,3,17,0.23
2012-3-1,67.5,55.0,46.7,51.8,36.4,13.4,99,58,17,29.92,29.82,17,2,17,0.20
2012-3-2,53.2,51.3,50.1,50.9,43.2,36.3,95,74,60,29.90,29.85,6,0,7,0.06
2012-3-3,50.4,41.9,34.9,41.2,28.1,18.1,75,58,48,29.81,29.68,11,1,11,0.96
2012-3-4,38.7,30.8,26.5,23.5,19.7,15.4,81,64,44,30.10,29.72,26,4,26,0.00
2012-3-5,42.4,34.1,25.8,26.5,19.5,10.8,71,56,33,30.51,29.96,24,4,26,0.00
2012-3-6,54.4,39.2,27.4,21.5,11.7,-14.8,59,34,11,30.65,30.50,18,6,18,0.00
2012-3-7,47.7,42.0,33.6,44.6,37.4,19.8,99,85,56,30.63,30.47,22,8,24,0.00
2012-3-8,54.9,48.8,44.5,50.5,47.1,44.5,100,94,78,30.48,30.16,23,6,23,0.20
2012-3-9,51.7,44.7,32.8,48.3,35.0,15.7,100,74,29,30.32,30.08,15,3,15,0.45
2012-3-10,55.9,43.6,32.5,24.7,17.0,3.7,66,35,22,30.52,30.32,16,5,17,0.00
2012-3-11,57.2,43.6,32.7,38.9,29.4,17.5,83,60,26,30.56,30.45,15,6,16,0.00
2012-3-12,49.9,45.8,42.2,49.8,45.4,38.9,100,99,80,30.47,30.32,20,6,20,0.13
2012-3-13,70.6,56.9,49.7,57.3,48.8,42.0,100,77,43,30.33,30.17,10,1,11,0.15
2012-3-14,71.8,58.7,50.5,51.4,46.3,41.6,91,65,39,30.27,30.19,10,2,12,0.00
2012-3-15,74.6,60.5,52.4,54.6,47.0,41.6,76,62,35,30.29,30.19,16,2,16,0.00
2012-3-16,74.2,57.6,45.9,54.5,48.7,44.6,99,74,44,30.27,30.13,15,2,16,0.12
2012-3-17,68.0,58.6,50.6,54.1,49.5,45.5,93,72,51,30.24,30.17,9,2,11,0.01
2012-3-18,66.8,57.4,50.3,58.4,53.1,47.6,100,86,65,30.29,30.19,14,3,14,0.19
2012-3-19,74.3,61.5,53.1,55.8,51.9,44.9,97,73,39,30.23,30.11,14,3,14,0.01
2012-3-20,72.5,62.6,56.1,56.2,51.5,47.6,86,68,44,30.18,30.09,21,5,21,0.00
2012-3-21,66.7,57.9,52.7,55.8,51.6,48.1,98,80,57,30.23,30.14,21,7,21,0.00
2012-3-22,64.3,56.8,53.1,59.2,54.5,51.6,100,92,74,30.25,30.16,15,6,15,0.00
2012-3-23,59.1,55.9,54.5,57.8,55.7,54.5,100,99,92,30.17,29.95,21,4,21,1.63
2012-3-24,66.0,52.4,41.0,54.6,47.7,38.8,100,87,43,29.95,29.77,13,2,16,0.28
2012-3-25,60.2,46.5,39.5,48.3,43.4,39.2,100,90,65,29.98,29.75,21,4,21,0.05
2012-3-26,71.7,56.1,45.0,46.1,41.0,33.7,94,62,29,30.11,29.94,15,2,18,0.03
2012-3-27,65.2,52.7,43.7,43.9,40.0,35.8,92,64,37,30.25,30.09,15,5,15,0.01
2012-3-28,67.0,58.9,46.7,52.5,47.7,37.6,97,68,56,30.24,30.16,12,2,12,0.00
2012-3-29,66.3,66.3,66.3,51.1,51.1,51.1,58,58,58,30.16,30.16,2,2,12,0.00
2012-3-30,66.3,66.3,66.3,51.1,51.1,51.1,58,58,58,30.16,30.16,2,2,12,0.00
2012-3-31,66.3,66.3,66.3,51.1,51.1,51.1,58,58,58,30.16,30.16,2,2,12,0.00
2012-4-1,66.3,65.9,57.9,51.1,51.1,50.1,76,59,58,30.16,29.78,7,2,12,0.37
2012-4-2,78.8,65.0,55.4,57.8,53.5,47.5,93,69,37,29.87,29.73,16,3,18,0.04
2012-4-3,74.7,60.2,52.2,62.0,55.2,50.4,100,84,61,29.92,29.84,13,3,13,0.03
2012-4-4,71.8,59.7,47.9,60.6,52.9,47.5,100,79,54,29.92,29.70,13,2,13,0.04
2012-4-5,71.7,58.1,47.6,57.6,52.2,47.6,100,82,52,29.72,29.58,14,2,14,0.03
2012-4-6,57.9,47.1,41.2,51.6,42.4,30.1,100,86,50,30.12,29.67,9,1,9,0.01
2012-4-7,64.8,50.5,41.5,41.9,35.9,26.3,76,59,27,30.29,30.12,13,2,15,0.02
2012-4-8,71.0,54.0,43.3,44.4,38.5,32.5,77,58,34,30.20,30.04,17,2,17,0.01
2012-4-9,68.3,52.0,39.0,37.6,27.4,16.5,69,43,16,30.11,29.96,18,3,24,0.00
2012-4-10,65.8,51.2,41.7,40.5,31.4,24.4,61,47,35,30.00,29.87,20,4,20,0.01
2012-4-11,54.9,40.8,30.4,26.2,20.7,16.2,67,46,24,30.16,29.85,22,4,23,0.13
2012-4-12,58.4,40.7,26.7,28.8,22.6,5.9,78,52,13,30.28,30.13,15,4,16,0.14
2012-4-13,61.3,47.4,34.5,32.7,28.8,19.1,77,51,22,30.31,30.18,15,4,15,0.00
2012-4-14,65.4,52.7,43.5,43.5,36.7,27.9,73,55,41,30.34,30.23,14,4,15,0.00
2012-4-15,72.4,59.0,48.6,55.7,48.5,36.3,94,69,48,30.24,30.16,16,3,19,0.00
2012-4-16,71.5,60.8,54.8,59.0,54.3,51.1,96,80,54,30.18,30.11,17,2,18,0.00
2012-4-17,73.3,59.0,50.2,58.4,53.2,49.3,99,83,54,30.17,30.03,16,4,16,1.19
2012-4-18,53.1,50.6,48.7,53.1,50.6,48.7,100,100,99,30.08,30.00,14,3,16,2.33
2012-4-19,60.4,52.0,47.5,55.7,50.5,47.5,100,95,77,30.08,30.00,13,4,14,0.23
2012-4-20,62.9,51.2,47.4,55.2,49.7,47.4,100,95,71,30.02,29.91,13,3,13,0.01
2012-4-21,61.7,56.2,51.9,57.1,54.0,51.8,100,93,74,29.80,29.71,7,1,7,0.04
2012-4-22,60.6,47.0,30.8,51.7,42.6,25.7,100,86,58,29.71,29.49,23,4,23,0.02
2012-4-23,48.2,36.5,28.5,32.6,25.5,19.5,87,66,42,29.85,29.56,25,6,25,0.19
2012-4-24,52.4,40.9,32.3,39.5,30.4,21.4,98,68,41,29.96,29.80,18,3,18,0.07
2012-4-25,68.8,53.0,38.9,55.2,48.2,38.4,99,85,57,29.98,29.90,14,3,15,0.16
2012-4-26,66.3,56.1,50.6,62.8,54.3,50.1,100,94,84,29.95,29.81,21,2,21,0.72
2012-4-27,71.8,61.0,54.5,61.0,56.6,54.2,100,86,58,30.06,29.91,11,2,11,0.22
2012-4-28,72.5,61.4,56.5,60.6,56.8,51.7,99,86,54,30.11,30.02,15,3,16,0.01
2012-4-29,77.7,63.6,54.1,63.3,57.9,51.8,100,84,48,30.14,30.07,14,3,14,0.03
2012-4-30,76.3,65.8,57.3,62.1,58.4,55.6,95,78,55,30.15,30.05,14,3,16,0.01
2012-5-1,76.5,65.6,57.1,64.3,60.0,56.8,99,83,58,30.10,30.03,11,3,13,0.00
2012-5-2,79.8,66.6,57.9,63.0,59.6,55.4,96,80,55,30.12,30.04,13,3,13,0.00
2012-5-3,79.3,66.0,57.7,61.8,57.2,41.1,98,76,29,30.13,30.04,13,3,14,0.00
2012-5-4,74.0,63.2,56.0,63.5,58.6,55.3,100,86,63,30.08,29.96,8,1,8,0.12
2012-5-5,77.0,63.9,56.2,62.0,56.4,51.3,100,79,46,29.97,29.86,14,3,15,0.01
2012-5-6,71.8,61.0,54.8,66.5,57.2,53.5,99,88,62,30.00,29.90,13,3,13,0.05
2012-5-7,68.8,59.3,55.8,61.5,57.7,55.8,100,95,73,30.01,29.91,15,6,15,0.12
2012-5-8,69.7,60.4,55.8,64.9,58.2,55.0,100,93,73,29.93,29.83,23,2,23,1.25
2012-5-9,59.6,54.2,44.8,59.3,53.3,42.9,100,97,84,29.86,29.68,15,2,15,0.08
2012-5-10,63.9,51.3,41.2,49.6,42.0,36.8,95,73,39,30.02,29.78,16,2,16,0.01
2012-5-11,64.5,53.0,43.3,50.1,43.2,36.3,85,70,51,30.25,30.01,13,3,13,0.00
2012-5-12,56.2,52.6,48.5,54.9,50.0,43.0,99,91,76,30.33,30.24,16,5,16,0.00
2012-5-13,53.0,51.5,49.6,52.7,51.2,49.6,100,99,93,30.26,30.07,17,6,21,1.01
2012-5-14,65.7,57.1,52.8,62.0,56.5,52.8,100,98,84,30.07,29.93,11,2,11,0.60
2012-5-15,68.2,58.0,53.9,62.0,56.7,51.9,100,96,78,30.00,29.94,9,1,10,0.32
2012-5-16,71.5,58.9,50.0,61.0,54.7,50.0,100,88,54,30.01,29.92,10,2,10,0.15
2012-5-17,68.8,59.1,52.4,61.1,54.8,49.8,100,86,66,30.03,29.94,13,2,13,0.18
2012-5-18,68.5,57.9,51.4,61.5,55.4,49.5,100,92,70,30.10,30.00,15,3,15,0.22
2012-5-19,69.7,59.0,52.8,61.5,56.7,52.4,100,93,67,30.14,30.05,8,1,9,0.00
2012-5-20,72.5,60.2,52.3,57.4,51.8,44.1,99,75,51,30.13,30.05,13,2,14,0.00
2012-5-21,74.5,60.1,51.3,60.5,53.3,46.8,100,80,55,30.07,29.90,11,1,12,1.38
2012-5-22,63.9,55.8,52.1,61.1,55.1,52.1,100,98,79,29.92,29.83,7,2,7,0.67
2012-5-23,64.5,56.5,52.3,61.0,56.1,52.3,100,98,87,29.96,29.84,7,2,8,0.08
2012-5-24,70.1,61.5,54.7,61.8,57.4,54.1,100,87,63,30.04,29.93,12,3,12,0.01
2012-5-25,76.8,66.0,57.5,66.9,60.2,52.6,98,82,46,30.12,30.03,10,2,10,0.00
2012-5-26,77.5,67.4,59.1,67.6,62.1,58.2,98,84,61,30.14,30.06,12,2,13,0.00
2012-5-27,75.1,66.3,60.4,64.8,61.3,58.8,99,85,61,30.09,30.01,17,4,17,0.00
2012-5-28,74.2,65.2,60.6,65.8,61.7,59.5,100,89,68,30.04,29.93,16,6,16,0.06
2012-5-29,70.3,62.3,58.6,66.3,61.6,58.0,100,98,85,29.97,29.83,13,3,17,0.10
2012-5-30,76.0,64.9,56.4,63.0,53.1,40.9,100,70,32,29.87,29.78,18,2,18,0.00
2012-5-31,72.2,64.8,59.6,61.4,53.3,41.3,95,67,47,29.88,29.77,22,3,22,0.01
2012-6-1,65.3,57.4,46.4,63.1,56.3,45.1,100,96,80,29.81,29.71,23,2,23,0.14
2012-6-2,65.5,52.1,42.0,56.1,44.8,37.8,99,78,45,30.00,29.80,10,2,16,0.01
2012-6-3,72.2,58.8,47.0,57.5,50.8,42.7,95,76,50,30.02,29.89,11,2,13,0.00
2012-6-4,70.0,61.0,56.0,62.9,58.2,53.7,100,91,72,29.89,29.74,16,2,16,0.14
2012-6-5,67.0,56.9,52.3,60.9,55.7,52.3,100,96,64,29.86,29.71,10,2,10,0.48
2012-6-6,65.0,55.1,48.8,60.4,54.0,48.8,100,96,79,30.02,29.83,11,3,13,0.10
2012-6-7,68.0,57.3,51.3,61.1,54.9,51.3,100,92,63,30.08,30.01,11,2,11,0.00
2012-6-8,71.8,60.6,54.5,63.7,56.6,52.3,97,87,63,30.09,30.01,14,2,14,0.00
2012-6-9,69.5,61.2,55.9,63.5,57.7,54.5,96,88,72,30.09,30.02,10,2,11,0.00
2012-6-10,59.2,56.7,52.6,59.1,56.1,50.9,100,98,88,30.13,30.04,16,6,17,0.23
2012-6-11,65.4,61.3,58.2,65.1,61.3,58.2,100,100,100,30.12,29.99,13,3,14,0.17
2012-6-12,77.0,66.1,59.2,71.3,64.2,58.9,100,94,73,30.00,29.85,12,1,13,0.06
2012-7-3,82.8,80.6,77.0,68.4,65.3,62.1,68,60,53,30.02,29.98,4,1,4,0.00
2012-7-4,83.3,71.2,61.5,68.6,63.4,59.6,96,78,49,30.01,29.94,11,2,13,0.00
2012-7-5,83.3,70.6,60.8,70.6,64.2,52.7,99,81,53,30.00,29.90,14,2,20,0.01
2012-7-6,81.7,72.5,65.7,69.4,61.5,52.2,85,69,53,29.98,29.92,11,2,11,0.00
2012-7-7,83.0,72.4,67.0,72.6,66.4,62.8,93,82,57,30.01,29.94,8,1,8,0.00
2012-7-8,85.6,70.2,63.9,72.6,67.4,62.8,100,91,58,30.00,29.88,16,2,17,0.00
2012-7-9,82.7,70.7,63.3,71.9,66.7,62.8,100,88,67,29.94,29.86,13,2,13,0.00
2012-7-10,80.7,67.2,62.4,68.6,64.3,61.0,100,91,63,29.99,29.87,13,1,14,0.00
2012-7-11,66.8,63.0,60.1,66.7,62.9,59.1,100,100,92,30.09,29.95,13,2,13,0.01
2012-7-12,63.1,61.2,60.2,63.0,61.2,60.1,100,100,100,30.14,30.04,19,5,19,0.00
2012-7-13,71.3,64.0,61.5,68.8,63.6,61.5,100,99,88,30.17,30.08,15,4,17,0.01
2012-7-14,72.2,65.4,60.8,71.2,65.0,60.8,100,99,90,30.20,30.12,15,4,15,0.00
2012-7-15,74.3,67.2,62.9,71.9,65.9,62.9,100,96,77,30.20,30.08,10,2,10,0.01
2012-7-16,80.3,68.1,61.8,70.4,65.3,61.8,100,92,62,30.12,29.96,8,1,9,0.00
2012-7-17,78.2,68.4,62.3,70.6,65.4,61.8,100,91,74,30.00,29.92,6,1,6,0.01
2012-7-18,81.2,69.2,62.5,71.2,66.0,61.2,100,90,55,30.00,29.92,10,1,10,0.00
2012-7-19,80.7,69.3,63.1,72.1,66.6,63.1,100,92,65,30.03,29.95,10,1,10,0.00
2012-7-20,75.7,67.9,62.4,69.1,65.7,61.7,100,93,76,29.97,29.88,7,1,9,0.00
2012-7-21,76.3,67.7,63.2,70.6,65.6,62.8,100,93,78,30.07,29.92,9,1,10,0.01
2012-7-22,81.6,70.1,63.1,70.2,65.5,62.2,100,87,60,30.17,30.07,7,1,7,0.00
2012-7-23,81.8,71.1,63.1,71.0,66.5,62.6,99,86,64,30.18,30.04,9,1,9,0.00
2012-7-24,82.5,72.0,64.9,73.3,68.0,64.7,100,88,66,30.07,29.90,8,2,8,0.00
2012-7-25,82.5,71.2,65.2,73.0,68.5,64.7,100,92,68,29.97,29.88,9,1,9,0.00
2012-7-26,83.3,72.6,65.1,72.1,67.8,65.1,100,86,64,29.92,29.82,8,1,9,0.01
2012-7-27,81.3,71.4,65.9,73.1,67.1,63.5,98,87,67,29.93,29.82,10,2,10,0.00
2012-7-28,82.8,70.1,62.0,68.3,63.8,57.6,100,82,49,30.01,29.91,9,1,9,0.00
2012-7-29,78.0,68.0,60.5,66.6,61.7,58.0,98,81,54,30.01,29.93,13,2,13,0.00
2012-7-30,77.8,67.8,62.7,68.9,62.9,58.8,98,85,70,29.98,29.91,11,2,12,0.00
2012-7-31,68.2,64.3,60.7,68.0,63.9,60.7,100,99,90,29.98,29.89,13,2,13,0.00
2012-8-1,79.0,67.4,56.7,68.8,63.1,56.7,100,88,58,29.97,29.88,6,1,6,0.00
2012-8-2,80.7,69.5,60.4,71.1,63.6,56.5,97,82,62,29.92,29.85,9,1,9,0.00
2012-8-3,75.7,67.4,62.6,71.6,65.7,58.4,100,94,76,30.03,29.87,11,2,15,0.00
2012-8-4,70.5,64.2,59.9,67.7,64.0,59.8,100,99,88,30.19,30.02,10,3,10,0.00
2012-8-5,76.0,67.5,63.2,71.8,65.8,63.2,100,94,78,30.22,30.10,10,2,11,0.00
2012-8-6,72.5,66.1,63.0,70.2,65.4,63.0,100,98,84,30.12,30.01,11,1,11,0.00
2012-8-7,71.6,65.8,62.9,69.2,65.6,62.9,100,99,89,30.03,29.94,8,1,8,0.00
2012-8-8,79.3,67.1,62.2,73.4,64.7,60.3,100,92,68,30.02,29.95,17,2,17,0.00
2012-8-9,76.3,65.2,59.3,73.3,63.8,59.3,100,95,80,30.00,29.83,13,2,13,0.00
2012-8-10,73.8,64.7,59.1,68.7,63.4,59.1,100,96,81,29.87,29.80,9,1,9,0.01
2012-8-11,73.0,64.1,57.8,68.0,61.9,57.0,100,93,75,29.94,29.82,6,1,6,0.00
2012-8-12,74.7,63.4,55.7,65.9,60.5,55.1,100,91,62,30.04,29.93,7,2,8,0.00
2012-8-13,71.6,62.9,56.9,63.5,58.0,52.8,99,85,60,30.03,29.93,11,2,11,0.00
2012-8-14,76.2,65.2,56.6,69.5,61.6,53.2,100,88,69,30.00,29.88,8,1,10,0.00
2012-8-15,75.3,64.4,58.7,67.1,61.2,57.2,100,90,70,30.00,29.88,17,1,17,0.00
2012-8-16,75.3,65.0,55.8,64.4,58.8,51.4,100,82,48,30.04,29.95,10,2,10,0.00
2012-8-17,75.0,65.1,60.4,67.9,62.1,57.8,98,90,75,30.01,29.84,5,1,5,0.00
2012-8-18,70.2,62.3,58.5,66.7,61.3,58.5,100,97,85,29.92,29.83,11,2,12,0.00
2012-8-19,67.5,61.7,57.8,64.7,60.6,57.8,100,96,83,29.90,29.83,6,0,6,0.00
2012-8-20,71.7,61.6,55.3,61.9,56.9,49.6,100,85,53,29.99,29.85,8,1,8,0.00
2012-8-21,70.2,60.6,55.3,61.8,55.5,49.8,97,83,65,30.08,29.98,9,1,9,0.00
2012-8-22,71.8,61.8,54.2,63.4,56.9,50.9,98,84,65,30.13,30.06,8,2,9,0.00
2012-8-23,71.6,62.0,56.8,65.6,60.3,56.6,100,94,76,30.14,30.08,11,2,11,0.00
2012-8-24,73.5,63.1,55.8,64.5,59.6,55.3,100,89,63,30.15,30.07,14,3,14,0.00
2012-8-25,73.8,62.2,55.1,66.7,59.5,54.4,100,91,66,30.15,30.08,10,1,13,0.00
2012-8-26,74.5,64.1,56.8,67.8,61.7,56.8,100,92,72,30.18,30.10,13,2,14,0.00
2012-8-27,76.3,65.2,57.9,69.3,62.2,57.4,100,90,69,30.14,30.01,11,3,11,0.00
2012-8-28,71.3,64.0,61.5,68.2,62.5,57.3,100,95,85,30.04,29.96,8,2,8,0.00
2012-8-29,74.5,65.5,62.0,71.1,64.4,61.7,100,96,81,30.02,29.94,12,2,12,0.00
2012-8-30,70.5,66.1,62.0,69.1,65.7,62.0,100,99,92,30.16,29.97,9,1,9,0.00
2012-8-31,78.2,67.6,61.5,70.5,65.1,60.6,100,92,68,30.24,30.14,15,1,16,0.00
2012-9-1,76.9,67.2,61.4,70.6,65.0,60.4,100,93,74,30.17,30.06,13,2,14,0.00
2012-9-2,76.2,67.5,63.1,72.6,66.4,63.1,100,96,85,30.08,29.92,10,2,13,0.00
2012-9-3,69.3,65.3,62.9,69.1,65.2,62.9,100,100,96,29.96,29.89,15,2,15,0.45
2012-9-4,65.7,63.9,62.5,65.6,63.9,62.5,100,100,100,29.94,29.89,16,3,16,0.63
2012-9-5,72.7,65.9,63.0,70.4,65.6,63.0,100,99,90,29.95,29.86,9,1,9,0.00
2012-9-6,77.0,67.7,61.4,71.4,65.0,61.1,100,92,71,29.95,29.86,6,1,6,0.01
2012-9-7,77.5,67.3,60.2,71.0,64.0,59.1,100,90,63,29.96,29.83,10,2,11,0.00
2012-9-8,77.3,64.6,54.7,69.5,63.1,54.7,100,96,71,29.85,29.69,10,2,10,0.08
2012-9-9,67.7,56.0,46.0,57.7,51.0,45.7,100,85,56,30.07,29.80,9,2,9,0.01
2012-9-10,68.6,57.5,48.3,57.0,52.1,47.1,97,83,59,30.18,30.05,7,1,8,0.01
2012-9-11,66.0,58.5,55.0,59.3,54.8,50.4,99,88,73,30.30,30.16,9,2,9,0.00
2012-9-12,68.5,59.3,54.6,60.7,56.2,54.1,100,90,67,30.35,30.26,15,3,15,0.00
2012-9-13,67.3,57.1,51.4,57.4,53.3,48.3,99,88,57,30.34,30.26,11,3,11,0.00
2012-9-14,69.6,59.6,52.8,59.9,54.8,51.1,95,85,60,30.29,30.20,9,1,9,0.00
2012-9-15,70.8,61.1,55.0,61.0,57.1,53.8,97,87,67,30.22,30.12,7,2,7,0.00
2012-9-16,68.0,60.6,57.6,64.2,59.3,56.3,100,95,79,30.13,30.04,7,1,7,0.47
2012-9-17,62.0,59.9,57.2,62.0,59.9,57.2,100,100,100,30.09,29.79,28,5,28,0.97
2012-9-18,62.2,59.4,53.0,62.1,59.4,53.0,100,100,100,29.86,29.68,30,4,31,2.46
2012-9-19,66.7,54.7,44.5,60.3,53.1,44.5,100,95,74,30.13,29.85,9,3,12,0.00
2012-9-20,66.3,56.6,52.0,60.3,55.1,51.9,100,95,76,30.15,30.06,10,2,11,0.00
2012-9-21,71.7,59.9,52.6,61.7,56.6,52.6,100,90,61,30.12,30.00,10,1,11,0.01
2012-9-22,73.5,61.3,50.8,63.4,56.9,46.4,100,86,66,30.02,29.93,12,2,15,0.01
2012-9-23,65.8,53.2,43.8,51.8,42.0,33.3,90,68,32,30.17,30.00,9,2,13,0.00
2012-9-24,63.4,50.7,40.2,48.4,41.3,25.4,87,71,41,30.25,30.16,10,3,10,0.00
2012-9-25,71.0,56.6,47.3,60.6,50.7,39.9,99,82,45,30.27,30.20,11,2,12,0.00
2012-9-26,74.0,61.1,53.4,63.3,56.6,51.5,99,86,55,30.24,30.15,8,2,8,0.00
2012-9-27,71.0,61.3,52.4,60.5,55.9,50.9,96,83,60,30.22,30.13,10,1,10,0.00
2012-9-28,59.4,58.4,57.8,56.7,55.7,54.8,92,91,89,30.15,30.13,4,2,4,0.00
2012-10-1,60.4,58.7,57.4,60.4,58.7,57.3,100,100,100,29.79,29.69,32,12,32,2.11
2012-10-2,63.6,59.4,55.7,61.8,58.8,55.6,100,98,86,29.98,29.70,30,6,30,2.34
2012-10-3,67.0,57.7,52.8,57.2,53.3,47.0,100,86,59,30.20,29.97,13,2,13,0.00
2012-10-4,68.5,57.9,50.5,57.0,50.9,46.3,100,80,48,30.27,30.19,11,2,11,0.00
2012-10-5,68.5,58.8,51.4,57.6,52.3,47.2,95,80,62,30.25,30.04,9,2,10,0.00
2012-10-6,69.4,58.4,52.3,59.9,54.6,50.4,98,88,69,30.05,29.91,10,1,10,0.00
2012-10-7,62.8,53.0,46.7,58.9,51.1,44.7,100,93,81,30.06,29.91,9,1,9,0.21
2012-10-8,47.9,43.8,40.3,47.9,43.8,40.3,100,100,100,30.17,30.03,17,4,17,0.05
2012-10-9,55.4,44.8,40.6,51.8,44.3,40.6,100,98,80,30.20,30.11,10,1,10,0.00
2012-10-10,58.2,47.5,41.3,51.4,45.5,41.3,100,93,77,30.19,30.10,13,3,14,0.02
2012-10-11,60.4,49.5,38.6,49.6,41.6,13.7,100,77,26,30.32,30.18,9,2,10,0.00
2012-10-12,67.3,54.9,47.8,57.5,50.4,39.4,99,85,67,30.30,30.19,10,2,13,0.00
2012-10-13,59.4,50.9,46.1,52.2,46.6,42.0,99,86,69,30.39,30.29,16,4,16,0.00
2012-10-14,56.4,51.9,45.8,56.0,51.6,44.7,100,99,95,30.34,30.06,12,3,12,0.02
2012-10-15,62.2,54.0,42.8,58.2,49.7,39.6,100,87,54,30.06,29.81,16,2,20,0.99
2012-10-16,62.4,48.9,39.2,44.8,39.1,25.0,93,73,28,30.01,29.84,15,2,17,0.00
2012-10-17,61.5,51.1,44.9,46.4,41.5,33.2,90,71,51,30.00,29.89,16,4,16,0.00
2012-10-18,54.7,50.3,45.2,54.5,49.7,41.8,100,98,87,29.90,29.82,19,4,19,0.04
2012-10-19,60.6,49.1,41.2,48.2,32.7,26.0,93,55,33,29.83,29.75,14,2,14,0.00
2012-10-20,59.9,47.4,39.2,44.4,38.3,32.6,92,72,49,30.02,29.79,12,2,13,0.00
2012-10-21,65.1,50.3,38.2,47.1,40.7,37.3,99,74,37,30.22,30.02,8,2,8,0.00
2012-10-22,71.0,58.5,49.8,51.0,44.8,39.1,80,61,41,30.25,30.15,10,2,10,0.00
2012-10-23,71.0,58.6,51.4,51.5,48.6,43.0,86,71,40,30.20,30.11,9,2,9,0.00
2012-10-24,73.3,58.9,51.7,53.6,46.7,40.9,86,66,33,30.20,30.11,12,4,12,0.00
2012-10-25,66.8,57.6,53.2,53.5,49.7,45.4,91,76,60,30.14,30.08,15,5,16,0.00
2012-10-26,68.5,58.5,53.0,57.9,54.3,51.4,100,87,63,30.09,29.93,16,3,16,0.00
2012-10-27,66.7,54.7,45.5,55.7,49.8,44.7,97,84,61,29.94,29.75,15,3,15,0.00
2012-10-28,54.6,42.1,32.1,48.8,40.9,30.6,100,96,79,29.79,29.72,16,5,19,0.13
2012-10-29,41.4,31.8,28.8,34.7,30.0,26.1,97,93,75,29.77,29.59,27,7,30,0.01
2012-10-30,32.4,29.5,27.6,29.8,27.7,25.0,98,93,87,29.76,29.49,23,6,23,0.01
2012-10-31,47.7,35.7,29.1,35.5,25.5,16.4,96,70,35,29.88,29.72,20,4,20,0.04
2012-11-1,50.9,37.1,26.6,27.5,20.2,14.5,84,53,26,29.99,29.81,18,4,18,0.00
2012-11-2,61.4,46.2,35.8,42.8,32.8,19.9,75,60,37,30.01,29.89,18,3,18,0.00
2012-11-3,67.0,53.2,40.7,49.7,33.9,5.3,78,51,20,30.11,30.01,13,2,14,0.00
2012-11-4,59.8,51.0,36.3,52.1,44.5,33.9,92,79,60,30.01,29.88,12,2,12,0.00
2012-11-5,54.2,40.3,30.7,35.0,30.9,16.8,98,74,25,30.09,29.93,11,3,11,0.00
2012-11-6,39.5,34.2,31.0,36.7,32.6,30.4,99,94,76,30.07,29.97,16,3,16,0.09
2012-11-7,43.2,35.1,32.3,40.0,34.6,32.1,100,98,85,30.07,29.90,11,1,12,0.19
2012-11-8,52.1,38.9,28.4,34.1,28.3,22.4,99,69,41,30.25,30.07,12,3,13,0.01
2012-11-9,61.1,47.8,35.5,32.9,25.2,14.9,60,42,18,30.35,30.24,7,2,8,0.00
2012-11-10,68.1,53.3,46.4,33.2,27.5,14.9,59,39,15,30.38,30.30,13,5,13,0.00
2012-11-11,56.4,49.1,43.5,50.0,40.5,30.9,98,73,55,30.45,30.35,33,9,33,0.00
2012-11-12,52.5,50.6,44.0,52.5,50.6,43.9,100,100,98,30.38,30.20,27,10,30,0.57
2012-11-13,52.2,41.2,33.4,43.8,33.6,22.7,100,77,47,30.38,30.18,14,4,14,0.02
2012-11-14,47.7,37.4,30.4,36.6,27.9,20.3,88,69,47,30.44,30.33,16,3,16,0.00
2012-11-15,55.7,41.4,33.0,45.1,37.6,29.5,100,87,66,30.35,30.24,14,3,14,0.01
2012-11-16,55.9,41.6,33.2,38.8,33.8,25.5,100,77,36,30.39,30.26,11,3,11,0.01
2012-11-17,55.7,42.2,33.3,30.0,19.2,6.5,75,43,16,30.48,30.38,21,4,24,0.00
2012-11-18,52.4,42.0,33.1,42.5,32.0,11.9,91,69,36,30.47,30.39,20,4,20,0.00
2012-11-19,54.9,45.8,38.9,48.9,43.0,33.8,100,90,72,30.40,30.22,9,2,9,0.00
2012-11-20,57.0,46.3,39.4,43.1,37.6,30.4,100,75,37,30.23,30.09,8,2,9,0.00
2012-11-21,59.5,47.3,40.6,42.4,37.0,34.4,82,68,47,30.21,30.11,13,2,13,0.00
2012-11-22,61.4,47.4,38.9,40.6,35.9,24.9,85,66,28,30.26,30.18,9,2,9,0.00
2012-11-23,60.7,44.5,31.8,45.3,36.9,26.3,87,75,48,30.19,29.94,15,4,15,0.00
2012-11-24,43.9,31.7,24.5,26.9,16.9,7.6,94,59,26,30.16,29.94,14,3,14,0.00
2012-11-25,54.7,40.2,25.4,13.8,5.9,-8.4,52,25,12,30.21,30.11,9,3,9,0.00
2012-11-26,61.6,46.1,36.3,37.9,22.5,13.7,55,39,29,30.24,30.13,13,4,13,0.00
2012-11-27,49.4,43.1,35.8,48.7,41.3,26.6,100,94,48,30.20,30.07,8,1,8,0.13
2012-11-28,50.1,38.6,31.5,36.1,29.7,17.8,100,75,32,30.40,30.18,9,2,11,0.00
2012-11-29,52.2,40.3,32.8,38.2,33.4,29.5,97,77,55,30.47,30.37,10,2,10,0.01
2012-11-30,55.1,43.6,35.3,39.7,31.3,10.4,89,65,19,30.41,30.30,9,2,9,0.00
2012-12-1,56.6,45.9,40.0,45.6,41.2,37.6,94,84,64,30.42,30.34,10,2,11,0.00
2012-12-2,59.7,49.4,45.0,50.9,44.8,42.6,99,85,59,30.40,30.29,11,2,12,0.00
2012-12-3,65.1,52.2,45.3,50.7,45.5,42.9,93,79,55,30.35,30.25,12,2,12,0.00
2012-12-4,62.2,51.9,47.1,49.0,46.1,43.3,90,81,60,30.32,30.20,12,1,12,0.00
2012-12-5,54.5,50.7,45.6,53.3,49.0,41.9,100,94,85,30.20,30.11,13,2,13,0.02
2012-12-6,46.4,42.7,37.3,44.1,37.0,30.6,95,81,65,30.24,30.15,14,5,14,0.07
2012-12-7,53.6,46.3,38.9,50.9,45.7,37.9,100,98,86,30.19,30.04,10,2,10,0.07
2012-12-8,62.2,50.7,46.8,53.3,48.9,46.3,100,94,72,30.08,30.01,9,1,9,0.05
2012-12-9,55.2,51.1,48.9,53.2,50.7,48.8,100,99,90,30.12,29.99,11,2,11,0.01
2012-12-10,52.8,50.2,47.5,52.8,50.2,46.3,100,100,96,29.99,29.71,17,2,25,0.80
2012-12-11,47.3,37.9,33.3,46.2,36.0,32.3,100,93,71,30.16,29.74,12,2,12,0.00
2012-12-12,39.6,35.2,31.9,36.1,33.4,31.0,100,93,83,30.33,30.16,13,2,13,0.00
2012-12-13,50.2,37.8,29.7,39.7,32.7,25.9,100,83,61,30.42,30.28,10,3,11,0.00
2012-12-14,55.9,42.7,32.0,34.7,27.3,-1.0,93,59,14,30.41,30.27,13,3,13,0.00
2012-12-15,58.7,46.4,41.1,40.3,26.1,-7.3,90,50,10,30.27,30.07,12,2,13,0.00
2012-12-16,50.4,46.3,41.9,50.2,45.8,39.4,100,98,88,30.08,29.96,10,1,11,0.36
2012-12-17,45.9,45.9,45.9,45.9,45.9,45.9,100,100,100,29.97,29.97,0,0,1,0.36
2012-12-18,45.9,45.9,45.9,45.9,45.9,45.9,100,100,100,29.97,29.97,0,0,1,0.36
2012-12-19,45.9,45.9,45.9,45.9,45.9,45.9,100,100,100,29.97,29.97,0,0,1,0.36
2012-12-20,45.9,45.9,45.9,45.9,45.9,45.9,100,100,100,29.97,29.97,0,0,1,0.36
2012-12-21,45.9,45.9,45.9,45.9,45.9,45.9,100,100,100,29.97,29.97,0,0,1,0.36
2012-12-22,45.9,45.9,45.9,45.9,45.9,45.9,100,100,100,29.97,29.97,0,0,1,0.36
2012-12-23,49.1,43.7,35.6,45.9,35.2,13.8,100,76,34,30.23,29.97,11,2,11,1.91
2012-12-24,45.5,41.5,35.4,45.5,40.3,28.3,100,96,66,30.10,29.87,12,1,13,0.73
2012-12-25,43.1,39.4,36.4,41.8,39.0,36.3,100,99,93,30.08,29.90,27,5,27,0.20
2012-12-26,43.9,35.3,23.9,43.8,35.2,23.4,100,100,98,29.90,29.49,38,9,38,1.36
2012-12-27,43.9,30.6,23.4,32.6,26.6,21.2,98,87,48,30.15,29.76,22,4,22,0.00
2012-12-28,49.6,36.3,29.9,32.8,24.5,-0.9,97,67,20,30.17,29.93,10,3,13,0.16
2012-12-29,36.6,29.0,20.0,35.5,28.0,17.0,100,96,88,30.08,29.80,21,4,24,0.10
2012-12-30,41.6,28.3,17.7,23.1,17.8,8.9,93,68,32,30.52,30.07,27,4,27,0.01
2012-12-31,51.7,40.1,34.2,23.1,10.0,-5.8,54,30,16,30.49,30.16,10,2,11,0.00
2013-1-1,44.1,41.5,36.9,44.1,38.2,16.7,100,90,41,30.16,29.97,10,2,10,0.71